Skip Page Navigation
NASA JPL Caltech
NASA Logo - Jet Propulsion Laboratory + View the NASA Portal
+ Center for Near-Earth Object Studies
JPL Home Earth Solar System Stars & Galaxies Technology
JPL Solar System Dynamics
BODIES ORBITS EPHEMERIDES TOOLS PHYSICAL DATA DISCOVERY FAQ SITE MAP
IMPORTANT: The SSD Announcement email list is now available. Major changes are coming in the near future, including possible hostname and/or URL changes. To be notified of such changes, subscribe to this email list.

Please visit this page for more details.


JPL Small-Body Database Browser
Search: [ help ]  
34116 (2000 PW26)
Classification: Main-belt Asteroid          SPK-ID: 2034116
Ephemeris | Orbit Diagram | Orbital Elements | Mission Design | Physical Parameters | Discovery Circumstances | Close-Approach Data ]

[ show orbit diagram ]
Orbital Elements at Epoch 2458600.5 (2019-Apr-27.0) TDB
Reference: JPL 20 (heliocentric ecliptic J2000)
 Element Value Uncertainty (1-sigma)   Units 
e .02395361701579692 4.3608e-08  
a 3.015525600036173 2.1524e-08 au
q 2.943292854711575 1.3518e-07 au
i 11.00111872747343 4.757e-06 deg
node 273.1577544050999 2.5048e-05 deg
peri 83.69444094042679 0.00010808 deg
M 219.4187069366703 0.00010563 deg
tp 2459347.409510358559
(2021-May-12.90951036)
0.00056391 TDB
period 1912.682817677254
5.24
2.0478e-05
5.607e-08
d
yr
n .1882173022483576 2.0151e-09 deg/d
Q 3.087758345360771 2.2039e-08 au
  Orbit Determination Parameters
   # obs. used (total)      1498  
   data-arc span      7709 days (21.11 yr)  
   first obs. used      1998-03-31  
   last obs. used      2019-05-09  
   planetary ephem.      DE431  
   SB-pert. ephem.      SB431-N16  
   condition code      0  
   norm. resid. RMS      .53151  
   source      ORB  
   producer      Otto Matic  
   solution date      2019-May-30 03:50:05  

Additional Information
 Earth MOID = 1.95824 au 
 Jupiter MOID = 2.09509 au 
 T_jup = 3.220 
[ show covariance matrix ]

Ephemeris | Orbit Diagram | Orbital Elements | Mission Design | Physical Parameters | Discovery Circumstances | Close-Approach Data ]

Physical Parameter Table
Parameter Symbol Value Units Sigma Reference Notes
absolute magnitude H 13.0   n/a MPO395328  
diameter diameter 14.106 km 0.071 urn:nasa:pds:neowise_diameters_albedos::2.0[mainbelt] (http://adsabs.harvard.edu/abs/2011ApJ...741...68M)  
geometric albedo albedo 0.058   0.009 urn:nasa:pds:neowise_diameters_albedos::2.0[mainbelt] (http://adsabs.harvard.edu/abs/2011ApJ...741...68M)  

34116 (2000 PW26)          Discovered 2000-Aug-05 by JPL/GEODSS NEAT at Haleakala
Reference: 20020128/Numbers.arcLast Updated: 2004-04-19

[ show close-approach data ]
Alternate Designations
 2000 PW26 = 1998 FM114 
Ephemeris | Orbit Diagram | Orbital Elements | Mission Design | Physical Parameters | Discovery Circumstances | Close-Approach Data ]
ABOUT SSD CREDITS/AWARDS PRIVACY/COPYRIGHT GLOSSARY LINKS
FirstGov 2019-Oct-20 15:20 UT
(server date/time)  
NASA Home Page
Site Manager:   Ryan S. Park
Webmaster  Alan B. Chamberlin